カタログに戻る

STARLINK-4083

運用中通信VLEO
NORAD 52832·PAYLOAD·🇺🇸 United States

打ち上げ Jun 17, 2022 から Cape Canaveral Space Force Station

Loading…

次のパス (今後24時間)

TLE

最新Source: CelesTrak SupGP

元期: Sep 15, 2026, 02:36 UTC

1 52832C 22062C   26258.10881944 -.00029141  00000+0 -93697-3 0  2583
2 52832  53.1574 253.9055 0001267  94.3146 100.7893 15.31720848    17

AllMySatでSTARLINK-4083をリアルタイム追跡

Download on the App Store